Luxor, Egypt

3:35 AM EET on April 24, 2018 (GMT +0200)
Luxor

Weather History for HELX - September, 2012

Change the Weather History Date:

Friday, September 21, 2012

  Actual Average Record
Temperature  
Mean Temperature 87 °F -  
Max Temperature 100 °F 93 °F 109 °F (1996)
Min Temperature 74 °F 67 °F 66 °F (2002)
Cooling Degree Days 22    
Growing Degree Days 37 (Base 50)    
Moisture  
Dew Point 58 °F    
Average Humidity 36    
Maximum Humidity 51    
Minimum Humidity 19    
Precipitation  
Precipitation 0.00 in 0.00 in - ()
Sea Level Pressure  
Sea Level Pressure 29.83 in    
Wind  
Wind Speed 3 mph ()    
Max Wind Speed 9 mph    
Max Gust Speed -    
Visibility 6.0 miles    
Events      
Averages and records for this station are not official NWS values.
T = Trace of Precipitation, MM = Missing Value Source: Averaged Metar Reports

Daily Weather History Graph

Daily Weather History Graph

Search for Another Location

Airport or City:

Astronomy

Sep. 21, 2012 Rise Set
Actual Time 5:37 AM EET 5:46 PM EET
Civil Twilight 5:14 AM EET 6:09 PM EET
Nautical Twilight 4:47 AM EET 6:36 PM EET
Astronomical Twilight 4:20 AM EET 7:02 PM EET
Moon 11:02 AM EET (9/21) 10:02 PM EET (9/21)
Length of Visible Light 12h 54m
Length of Day
12h 09m
Waxing Crescent, 34% of the Moon is Illuminated
Sep 21
Waxing Crescent
Sep 22
First Quarter
Sep 30
Full
Oct 8
Last Quarter
Oct 15
New

Hourly Weather History & Observations

Time (EET) Temp. Heat Index Dew Point Humidity Pressure Visibility Wind Dir Wind Speed Gust Speed Precip Events Conditions
12:00 AM 86.0 °F 84.2 °F 53.6 °F 33% 29.83 in - SE 4.6 mph - N/A   Clear
1:00 AM 86.0 °F 84.5 °F 55.4 °F 35% 29.80 in - NE 4.6 mph - N/A   Clear
2:00 AM 85 °F - 55 °F 25% 29.81 in 6 mi North 3.5 mph - -  
2:00 AM 86.0 °F 84.5 °F 55.4 °F 35% 29.83 in - North 3.5 mph - N/A   Clear
3:00 AM 82.4 °F 81.7 °F 55.4 °F 39% 29.83 in - NW 3.5 mph - N/A   Clear
4:00 AM 78.8 °F - 57.2 °F 47% 29.83 in - West 1.2 mph - N/A   Clear
5:00 AM 77.0 °F - 55.4 °F 47% 29.83 in - SSW 1.2 mph - N/A   Clear
6:00 AM 77.0 °F - 57.2 °F 50% 29.86 in - SSW 1.2 mph - N/A   Clear
7:00 AM 78.8 °F - 59.0 °F 51% 29.86 in - South 2.3 mph - N/A   Clear
8:00 AM 85 °F - 60 °F 33% 29.87 in 6 mi Calm Calm - -  
8:00 AM 84.2 °F 84.4 °F 60.8 °F 45% 29.86 in - Calm Calm - N/A   Clear
9:00 AM 89.6 °F 88.9 °F 59.0 °F 36% 29.86 in - Calm Calm - N/A   Clear
10:00 AM 91.4 °F 91.4 °F 60.8 °F 36% 29.86 in - West 4.6 mph - N/A   Clear
11:00 AM 93.2 °F 94.1 °F 62.6 °F 36% 29.86 in - West 4.6 mph - N/A   Clear
12:00 PM 96.8 °F 97.1 °F 60.8 °F 30% 29.83 in - West 4.6 mph - N/A   Clear
1:00 PM 96.8 °F 96.2 °F 59.0 °F 28% 29.80 in - West 6.9 mph - N/A   Clear
2:00 PM 98 °F - 60 °F 19% 29.79 in 6 mi WNW 9.2 mph - -  
2:00 PM 98.6 °F 98.5 °F 59.0 °F 27% 29.80 in - WNW 9.2 mph - N/A   Clear
3:00 PM 98.6 °F 98.5 °F 59.0 °F 27% 29.80 in - West 9.2 mph - N/A   Clear
4:00 PM 96.8 °F 97.1 °F 60.8 °F 30% 29.80 in - WNW 9.2 mph - N/A   Clear
5:00 PM 95.0 °F 94.4 °F 59.0 °F 30% 29.80 in - WNW 6.9 mph - N/A   Clear
6:00 PM 89.6 °F 88.1 °F 57.2 °F 33% 29.83 in - WNW 4.6 mph - N/A   Clear
7:00 PM 87.8 °F 86.5 °F 57.2 °F 35% 29.83 in - Calm Calm - N/A   Clear
8:00 PM 85 °F - 57 °F 28% 29.84 in 6 mi WSW 6.9 mph - -  
8:00 PM 84.2 °F 83.5 °F 57.2 °F 40% 29.83 in - WSW 6.9 mph - N/A   Clear
9:00 PM 84.2 °F 83.5 °F 57.2 °F 40% 29.86 in - Calm Calm - N/A   Clear
10:00 PM 84.2 °F 83.5 °F 57.2 °F 40% 29.86 in - Calm Calm - N/A   Clear
11:00 PM 78.8 °F - 59.0 °F 51% 29.83 in - WSW 4.6 mph - N/A   Clear